Weather History for Caldwell, NJ

Change the Weather History Date:

Tuesday, September 4, 2012

  Actual Average Record
Temperature  
Mean Temperature 75 °F -  
Max Temperature 82 °F 80 °F 95 °F (1953)
Min Temperature 68 °F 56 °F 43 °F (1967)
Cooling Degree Days 10    
Growing Degree Days 25 (Base 50)    
Moisture  
Dew Point 70 °F    
Average Humidity 88    
Maximum Humidity 94    
Minimum Humidity 70    
Precipitation  
Precipitation 0.39 in - - ()
Sea Level Pressure  
Sea Level Pressure 29.98 in    
Wind  
Wind Speed 2 mph (ESE)    
Max Wind Speed 12 mph    
Max Gust Speed -    
Visibility 7 miles    
Events Rain    
Averages and records for this station are not official NWS values.
T = Trace of Precipitation, MM = Missing Value Source: NWS Daily Summary

Daily Weather History Graph

Daily Weather History Graph

Search for Another Location

Airport:

Trip Planner

Search our weather history database for the weather conditions in past years. The results will help you decide how hot, cold, wet, or windy it might be!

Date:

Astronomy

Sep. 04, 2012 Rise Set
Actual Time 6:27 AM EDT 7:23 PM EDT
Civil Twilight 5:59 AM EDT 7:51 PM EDT
Nautical Twilight 5:26 AM EDT 8:24 PM EDT
Astronomical Twilight 4:51 AM EDT 8:59 PM EDT
Moon 9:13 PM EDT (9/4) 10:33 AM EDT (9/4)
Length of Visible Light 13h 52m
Length of Day
12h 56m
Waning Gibbous, 84% of the Moon is Illuminated
Sep 4
Waning Gibbous
Sep 8
Last Quarter
Sep 15
New
Sep 22
First Quarter
Sep 29
Full

Hourly Weather History & Observations

Time (EDT) Temp. Heat Index Dew Point Humidity Pressure Visibility Wind Dir Wind Speed Gust Speed Precip Events Conditions
12:53 AM 70.0 °F - 66.0 °F 87% 30.12 in 10.0 mi Calm Calm - 0.00 in   Overcast
1:34 AM 69.8 °F - 66.2 °F 88% 30.09 in 2.0 mi Calm Calm - 0.11 in Rain Rain
1:42 AM 69.8 °F - 66.2 °F 88% 30.09 in 4.0 mi Calm Calm - 0.12 in Rain Light Rain
1:53 AM 69.1 °F - 66.0 °F 90% 30.10 in 5.0 mi Calm Calm - 0.13 in Rain Light Rain
2:07 AM 69.8 °F - 66.2 °F 88% 30.08 in 6.0 mi Calm Calm - 0.01 in Rain Light Rain
2:14 AM 68.0 °F - 66.2 °F 94% 30.07 in 10.0 mi ENE 3.5 mph - 0.01 in Rain Light Rain
2:21 AM 68.0 °F - 66.2 °F 94% 30.07 in 10.0 mi ENE 3.5 mph - 0.01 in Rain Light Rain
2:37 AM 69.8 °F - 66.2 °F 88% 30.06 in 10.0 mi ENE 3.5 mph - 0.01 in Rain Light Rain
2:53 AM 69.1 °F - 66.0 °F 90% 30.07 in 10.0 mi NE 4.6 mph - 0.01 in   Overcast
3:53 AM 69.1 °F - 66.0 °F 90% 30.06 in 10.0 mi Calm Calm - N/A   Overcast
4:53 AM 69.1 °F - 66.9 °F 93% 30.06 in 10.0 mi NNE 3.5 mph - N/A   Overcast
5:53 AM 70.0 °F - 66.9 °F 90% 30.06 in 10.0 mi Calm Calm - N/A   Overcast
6:53 AM 70.0 °F - 66.9 °F 90% 30.06 in 9.0 mi Calm Calm - 0.00 in Rain Light Rain
7:00 AM 69.8 °F - 66.2 °F 88% 30.05 in 10.0 mi Calm Calm - 0.00 in Rain Light Rain
7:09 AM 69.8 °F - 66.2 °F 88% 30.04 in 10.0 mi Calm Calm - 0.00 in   Overcast
7:53 AM 71.1 °F - 68.0 °F 90% 30.05 in 10.0 mi Variable 3.5 mph - 0.00 in   Overcast
8:49 AM 71.6 °F - 68.0 °F 88% 30.03 in 9.0 mi East 3.5 mph - N/A   Overcast
8:53 AM 71.1 °F - 68.0 °F 90% 30.04 in 8.0 mi East 3.5 mph - N/A   Overcast
9:09 AM 71.6 °F - 69.8 °F 94% 30.03 in 7.0 mi Calm Calm - N/A   Overcast
9:40 AM 73.4 °F - 69.8 °F 88% 30.03 in 7.0 mi Calm Calm - N/A   Overcast
9:53 AM 73.9 °F - 70.0 °F 87% 30.04 in 8.0 mi ENE 4.6 mph - N/A   Overcast
10:00 AM 75.2 °F - 69.8 °F 83% 30.03 in 8.0 mi ENE 3.5 mph - N/A   Overcast
10:16 AM 73.4 °F - 69.8 °F 88% 30.03 in 7.0 mi Calm Calm - N/A   Overcast
10:42 AM 73.4 °F - 69.8 °F 88% 30.03 in 1.8 mi Calm Calm - 0.05 in Rain Heavy Rain
10:53 AM 73.9 °F - 71.1 °F 91% 30.04 in 1.2 mi Calm Calm - 0.10 in Rain Rain
10:58 AM 73.4 °F - 71.6 °F 94% 30.03 in 2.0 mi Calm Calm - 0.00 in Rain Light Rain
11:00 AM 73.4 °F - 71.6 °F 94% 30.03 in 3.0 mi Calm Calm - 0.00 in Rain Light Rain
11:43 AM 75.2 °F - 71.6 °F 89% 30.02 in 5.0 mi Calm Calm - 0.00 in   Overcast
11:53 AM 75.9 °F - 72.0 °F 87% 30.03 in 5.0 mi Calm Calm - 0.00 in   Overcast
12:53 PM 77.0 °F - 72.0 °F 84% 30.01 in 6.0 mi Calm Calm - N/A   Haze
1:00 PM 77.0 °F - 71.6 °F 83% 29.99 in 7.0 mi ENE 3.5 mph - N/A   Overcast
1:13 PM 77.0 °F - 71.6 °F 83% 29.99 in 8.0 mi Calm Calm - N/A   Overcast
1:53 PM 79.0 °F - 72.0 °F 79% 29.98 in 10.0 mi SSE 6.9 mph - N/A   Overcast
2:00 PM 78.8 °F - 71.6 °F 78% 29.97 in 10.0 mi SSE 5.8 mph - N/A   Overcast
2:07 PM 78.8 °F - 71.6 °F 78% 29.96 in 10.0 mi SSE 8.1 mph - N/A   Overcast
2:19 PM 78.8 °F - 71.6 °F 78% 29.96 in 10.0 mi SE 6.9 mph - N/A   Overcast
2:28 PM 78.8 °F - 71.6 °F 78% 29.96 in 10.0 mi SSE 11.5 mph - N/A   Overcast
2:46 PM 80.6 °F 84.6 °F 71.6 °F 74% 29.95 in 10.0 mi South 6.9 mph - N/A   Overcast
2:53 PM 81.0 °F 85.2 °F 72.0 °F 74% 29.96 in 10.0 mi South 6.9 mph - N/A   Mostly Cloudy
3:25 PM 82.4 °F 87.2 °F 71.6 °F 70% 29.93 in 10.0 mi South 6.9 mph - N/A   Mostly Cloudy
3:53 PM 80.1 °F 83.8 °F 72.0 °F 76% 29.94 in 10.0 mi SSE 6.9 mph - N/A   Mostly Cloudy
4:34 PM 75.2 °F - 71.6 °F 89% 29.93 in 2.5 mi SW 3.5 mph - 0.02 in Rain Light Rain
4:51 PM 75.2 °F - 73.4 °F 94% 29.92 in 4.0 mi Calm Calm - 0.04 in Rain Light Rain
4:53 PM 75.9 °F - 73.0 °F 91% 29.94 in 4.0 mi WSW 3.5 mph - 0.05 in Rain Light Rain
4:57 PM 75.2 °F - 73.4 °F 94% 29.93 in 2.5 mi Variable 3.5 mph - 0.01 in Rain Light Rain
5:18 PM 75.2 °F - 71.6 °F 89% 29.93 in 3.0 mi Calm Calm - 0.04 in Rain Light Rain
5:40 PM 75.2 °F - 71.6 °F 89% 29.92 in 2.5 mi Calm Calm - 0.08 in Rain Light Rain
5:51 PM 75.2 °F - 71.6 °F 89% 29.92 in 4.0 mi Calm Calm - 0.09 in Rain Light Rain
6:53 PM 75.0 °F - 72.0 °F 90% 29.91 in 7.0 mi Calm Calm - 0.01 in   Partly Cloudy
7:09 PM 75.2 °F - 71.6 °F 89% 29.90 in 6.0 mi Calm Calm - N/A   Mostly Cloudy
7:53 PM 75.0 °F - 72.0 °F 90% 29.91 in 7.0 mi Calm Calm - 0.00 in   Overcast
8:39 PM 75.2 °F - 71.6 °F 89% 29.89 in 3.0 mi Calm Calm - 0.03 in Rain Light Rain
8:43 PM 75.2 °F - 71.6 °F 89% 29.89 in 2.0 mi Calm Calm - 0.03 in Rain Light Rain
8:53 PM 75.0 °F - 73.0 °F 94% 29.90 in 2.5 mi Calm Calm - 0.04 in Rain Light Rain
9:08 PM 75.2 °F - 73.4 °F 94% 29.89 in 2.5 mi Calm Calm - 0.01 in Rain Light Rain
9:53 PM 75.0 °F - 73.0 °F 94% 29.89 in 4.0 mi Calm Calm - 0.05 in Rain Light Rain
10:36 PM 77.0 °F - 73.4 °F 89% 29.86 in 6.0 mi Calm Calm - 0.00 in   Mostly Cloudy
10:53 PM 77.0 °F - 73.9 °F 90% 29.87 in 6.0 mi Variable 3.5 mph - 0.00 in   Scattered Clouds
11:14 PM 77.0 °F - 73.4 °F 89% 29.85 in 6.0 mi Variable 4.6 mph - N/A   Mostly Cloudy
11:33 PM 77.0 °F - 73.4 °F 89% 29.84 in 6.0 mi Variable 3.5 mph - N/A   Partly Cloudy
11:53 PM 77.0 °F - 73.0 °F 88% 29.85 in 7.0 mi SSW 5.8 mph - N/A   Scattered Clouds